Location: Rodanthe
(35.5920°N, 75.4670°W)
Time: 05:17:49
(UTC-04:00)

ISS - All Passes

Search period start: 22 July 2014 00:00
Search period end: 01 August 2014 00:00
Orbit: 413 x 420 km, 51.6° (Epoch: 22 July)

Date Brightness Start Highest point End Pass type
(mag) Time Alt. Az. Time Alt. Az. Time Alt. Az.
22 Jul - 01:21:45 10° S 01:24:13 19° SE 01:26:41 10° E night (unlit)
22 Jul - 02:57:40 10° WSW 03:00:46 35° NW 03:03:53 10° NNE visible
22 Jul - 07:53:22 10° N 07:54:43 12° NNE 07:56:04 10° NE daylight
22 Jul - 09:28:36 10° NW 09:31:58 72° NE 09:35:18 10° SE daylight
23 Jul - 00:35:29 10° SE 00:35:54 10° SE 00:36:19 10° ESE night (unlit)
23 Jul - 02:08:54 10° WSW 02:12:12 63° NW 02:15:32 10° NE visible
23 Jul - 03:48:26 10° NW 03:49:30 11° NNW 03:50:34 10° N visible
23 Jul - 08:40:14 10° NW 08:43:25 38° NE 08:46:35 10° ESE daylight
23 Jul - 10:17:38 10° W 10:19:55 17° SW 10:22:12 10° S daylight
24 Jul - 01:20:24 10° SW 01:23:43 66° SE 01:27:02 10° NE visible
24 Jul - 02:58:37 10° WNW 03:00:45 16° NNW 03:02:53 10° NNE visible
24 Jul - 07:52:00 10° NNW 07:54:48 24° NNE 07:57:35 10° E daylight
24 Jul - 09:28:31 10° WNW 09:31:33 32° SW 09:34:35 10° SSE daylight
25 Jul - 00:32:15 10° SSW 00:35:17 33° SE 00:38:20 10° ENE night (unlit)
25 Jul - 02:09:18 10° W 02:12:03 23° NNW 02:14:49 10° NNE visible
25 Jul - 07:03:56 10° NNW 07:06:06 16° NNE 07:08:17 10° ENE daylight
25 Jul - 08:39:48 10° NW 08:43:08 64° SW 08:46:26 10° SE daylight
25 Jul - 23:44:36 10° S 23:46:55 18° SE 23:49:13 10° E night (unlit)
26 Jul - 01:20:17 10° WSW 01:23:25 37° NW 01:26:35 10° NNE visible
26 Jul - 06:16:12 10° N 06:17:20 11° NNE 06:18:29 10° NE daylight
26 Jul - 07:51:17 10° NW 07:54:38 65° NE 07:57:57 10° ESE daylight
27 Jul - 00:31:32 10° SW 00:34:51 70° NW 00:38:12 10° NE night (unlit)
27 Jul - 02:10:50 10° NW 02:12:07 12° NNW 02:13:24 10° N visible
27 Jul - 07:02:55 10° NNW 07:06:03 35° NE 07:09:11 10° ESE daylight
27 Jul - 08:40:09 10° W 08:42:36 19° SW 08:45:02 10° S daylight
27 Jul - 23:43:05 10° SW 23:46:21 59° SE 23:49:40 10° NE night (unlit)
28 Jul - 01:21:07 10° WNW 01:23:21 17° NNW 01:25:36 10° NNE visible
28 Jul - 06:14:42 10° NNW 06:17:25 22° NNE 06:20:07 10° E daylight
28 Jul - 07:51:06 10° WNW 07:54:12 35° SW 07:57:18 10° SSE daylight
28 Jul - 22:54:59 10° SSW 22:57:55 29° SE 23:00:53 10° ENE night (unlit)
29 Jul - 00:31:50 10° W 00:34:39 25° NNW 00:37:29 10° NNE night (unlit)
29 Jul - 05:26:38 10° N 05:28:41 15° NNE 05:30:44 10° ENE visible
29 Jul - 07:02:24 10° NW 07:05:45 71° SW 07:09:05 10° SE daylight
29 Jul - 22:07:26 10° SSE 22:09:33 16° SE 22:11:40 10° E night (unlit)
29 Jul - 23:42:50 10° WSW 23:46:01 41° NW 23:49:13 10° NE night (unlit)
30 Jul - 04:39:01 10° N 04:39:54 11° NNE 04:40:46 10° NE visible
30 Jul - 06:13:54 10° NW 06:17:14 59° NE 06:20:32 10° ESE daylight
30 Jul - 07:52:32 10° WSW 07:53:33 11° SW 07:54:35 10° SW daylight
30 Jul - 22:54:07 10° SW 22:57:27 78° NW 23:00:48 10° NE night (unlit)
31 Jul - 00:33:12 10° NW 00:34:40 12° NNW 00:36:07 10° N visible
31 Jul - 05:25:32 10° NNW 05:28:37 33° NE 05:31:42 10° ESE visible
31 Jul - 07:02:37 10° W 07:05:12 21° SW 07:07:47 10° S daylight
31 Jul - 22:05:42 10° SSW 22:08:57 52° SE 22:12:13 10° ENE night (unlit)
31 Jul - 23:43:33 10° WNW 23:45:53 18° NNW 23:48:14 10° NNE night (unlit)
